Total_Precipitation_Accumulation
0.00 0.00 0.00 0.00 0.00 0.00 0.01 0.03 0.09 0.17 0.18 0.15 0.19 0.23 0.21 0.24 0.34 0.69 0.39 0.22 0.09 0.02 0.01 0.01 0.02 0.03 0.04 0.03 0.03 0.05 0.08 0.12 0.14 0.13 0.11 0.10 0.09 0.09 0.10 0.11 0.14 0.20 0.23 0.22 0.20 0.20 0.20 0.20 0.15
0.00 0.00 0.00 0.00 0.00 0.00 0.02 0.04 0.09 0.13 0.17 0.17 0.20 0.21 0.20 0.18 0.12 0.11 0.10 0.10 0.07 0.03 0.01 0.01 0.01 0.03 0.05 0.05 0.05 0.06 0.09 0.12 0.17 0.18 0.17 0.14 0.11 0.11 0.12 0.12 0.14 0.19 0.22 0.19 0.16 0.13 0.12 0.10 0.07
0.00 0.00 0.00 0.00 0.00 0.00 0.04 0.07 0.09 0.11 0.14 0.16 0.22 0.24 0.28 0.21 0.12 0.11 0.10 0.09 0.06 0.04 0.02 0.01 0.01 0.03 0.06 0.07 0.07 0.09 0.12 0.16 0.20 0.24 0.24 0.19 0.12 0.11 0.14 0.16 0.16 0.18 0.21 0.22 0.18 0.12 0.08 0.05 0.05
0.00 0.00 0.00 0.00 0.00 0.00 0.03 0.06 0.06 0.10 0.14 0.15 0.16 0.23 0.24 0.19 0.13 0.12 0.11 0.09 0.05 0.04 0.02 0.01 0.02 0.03 0.06 0.08 0.10 0.13 0.15 0.19 0.25 0.29 0.28 0.21 0.14 0.13 0.16 0.20 0.22 0.23 0.26 0.30 0.25 0.22 0.14 0.09 0.06
0.00 0.00 0.00 0.00 0.00 0.00 0.01 0.04 0.05 0.08 0.11 0.12 0.15 0.23 0.26 0.20 0.14 0.13 0.12 0.11 0.07 0.05 0.03 0.01 0.03 0.04 0.07 0.09 0.10 0.13 0.17 0.22 0.28 0.32 0.28 0.21 0.15 0.13 0.16 0.22 0.25 0.28 0.30 0.28 0.24 0.21 0.15 0.13 0.12
0.00 0.00 0.00 0.00 0.00 0.00 0.01 0.02 0.03 0.06 0.10 0.10 0.16 0.28 0.33 0.21 0.18 0.17 0.18 0.17 0.11 0.09 0.06 0.03 0.03 0.04 0.12 0.18 0.13 0.12 0.16 0.20 0.27 0.31 0.28 0.20 0.16 0.18 0.22 0.23 0.26 0.29 0.25 0.20 0.19 0.17 0.14 0.16 0.19
0.00 0.00 0.00 0.00 0.00 0.00 0.01 0.02 0.03 0.06 0.11 0.12 0.14 0.28 0.40 0.35 0.28 0.26 0.24 0.24 0.18 0.17 0.13 0.07 0.05 0.04 0.08 0.11 0.11 0.12 0.14 0.18 0.24 0.28 0.31 0.25 0.20 0.27 0.31 0.29 0.29 0.31 0.25 0.19 0.18 0.18 0.15 0.20 0.25
0.00 0.00 0.00 0.00 0.01 0.01 0.01 0.02 0.03 0.06 0.11 0.14 0.12 0.20 0.41 0.55 0.46 0.44 0.37 0.39 0.38 0.48 0.57 0.37 0.23 0.12 0.05 0.05 0.08 0.12 0.14 0.17 0.20 0.20 0.22 0.20 0.21 0.25 0.28 0.24 0.23 0.24 0.18 0.13 0.12 0.13 0.13 0.11 0.10
0.00 0.00 0.00 0.00 0.01 0.01 0.01 0.02 0.03 0.05 0.09 0.09 0.09 0.14 0.33 0.41 0.43 0.55 0.52 0.58 0.67 0.89 1.08 0.76 0.37 0.19 0.14 0.12 0.11 0.12 0.11 0.15 0.14 0.12 0.14 0.18 0.27 0.32 0.31 0.21 0.17 0.12 0.09 0.06 0.05 0.04 0.03 0.02 0.02
0.00 0.00 0.00 0.00 0.00 0.01 0.01 0.01 0.03 0.03 0.05 0.07 0.10 0.14 0.24 0.30 0.38 0.55 0.67 1.05 1.11 1.06 1.10 0.93 0.46 0.36 0.33 0.27 0.22 0.18 0.13 0.13 0.13 0.17 0.15 0.23 0.44 0.50 0.37 0.31 0.19 0.12 0.09 0.07 0.06 0.06 0.04 0.03 0.03
0.00 0.00 0.00 0.00 0.00 0.01 0.01 0.01 0.03 0.03 0.04 0.06 0.12 0.21 0.24 0.26 0.35 0.44 0.60 1.16 1.38 1.00 0.80 0.71 0.60 0.50 0.47 0.41 0.39 0.37 0.31 0.32 0.32 0.35 0.31 0.42 0.49 0.38 0.31 0.34 0.28 0.23 0.18 0.18 0.17 0.10 0.07 0.07 0.09
0.00 0.00 0.00 0.00 0.00 0.01 0.01 0.02 0.02 0.03 0.04 0.06 0.14 0.28 0.39 0.36 0.36 0.50 0.76 0.92 1.00 0.93 0.80 0.78 0.80 0.66 0.64 0.70 0.70 0.77 0.71 0.58 0.49 0.51 0.45 0.58 0.72 0.63 0.60 0.62 0.55 0.55 0.50 0.44 0.33 0.23 0.18 0.16 0.14
0.00 0.00 0.00 0.00 0.00 0.01 0.01 0.01 0.01 0.02 0.03 0.05 0.11 0.27 0.37 0.40 0.48 0.59 0.81 1.06 1.11 1.14 1.05 0.92 0.96 0.92 0.86 0.98 0.97 0.86 0.84 0.70 0.60 0.59 0.60 0.67 0.73 0.77 0.85 0.82 0.90 0.89 0.76 0.60 0.48 0.35 0.34 0.32 0.30
0.00 0.00 0.00 0.00 0.00 0.00 0.01 0.01 0.01 0.02 0.03 0.04 0.09 0.21 0.29 0.31 0.52 0.68 0.91 1.22 1.40 1.50 1.34 1.08 1.02 0.94 0.89 0.92 0.96 0.91 0.83 0.77 0.77 0.81 0.76 0.72 0.82 1.07 1.12 1.08 1.02 0.92 0.84 0.77 0.70 0.61 0.56 0.51 0.50
0.00 0.00 0.00 0.00 0.00 0.00 0.00 0.01 0.02 0.03 0.04 0.05 0.10 0.20 0.31 0.39 0.46 0.64 0.88 1.27 1.59 1.84 1.72 1.37 1.14 1.13 1.05 0.97 0.98 0.91 0.91 1.02 0.98 1.11 1.20 1.03 0.94 1.07 1.18 1.29 1.21 1.06 0.99 0.92 0.82 0.80 0.77 0.71 0.69
0.00 0.00 0.00 0.00 0.00 0.00 0.00 0.03 0.03 0.04 0.04 0.07 0.11 0.18 0.31 0.47 0.45 0.55 0.83 1.31 1.90 2.31 2.14 1.59 1.19 1.27 1.32 1.32 1.25 1.22 1.17 1.19 1.20 1.17 1.29 1.28 1.32 1.27 1.28 1.33 1.24 1.14 1.10 1.19 1.17 1.15 1.11 1.01 0.94
0.00 0.00 0.00 0.01 0.00 0.00 0.01 0.04 0.05 0.05 0.06 0.08 0.13 0.21 0.33 0.37 0.42 0.54 0.85 1.37 2.15 2.86 2.62 1.96 1.64 1.64 1.64 1.68 1.80 1.92 2.01 1.84 1.70 1.61 1.54 1.48 1.52 1.48 1.48 1.55 1.51 1.44 1.48 1.45 1.31 1.33 1.37 1.36 1.24
0.00 0.00 0.00 0.01 0.00 0.00 0.02 0.04 0.06 0.07 0.08 0.10 0.15 0.25 0.27 0.32 0.42 0.60 1.00 1.66 2.37 3.10 2.91 2.46 2.15 2.17 2.01 1.94 2.07 2.23 2.34 2.33 2.31 2.30 2.17 2.00 1.95 1.97 2.01 2.07 2.03 1.87 1.83 1.78 1.76 1.71 1.47 1.26 1.12
0.00 0.00 0.01 0.01 0.01 0.01 0.03 0.07 0.10 0.11 0.12 0.14 0.19 0.27 0.32 0.34 0.43 0.75 1.21 1.77 2.17 2.37 2.41 2.48 2.45 2.44 2.39 2.36 2.41 2.59 2.75 2.78 2.73 2.70 2.67 2.65 2.61 2.61 2.66 2.60 2.53 2.29 2.11 1.99 1.88 1.73 1.53 1.32 1.14
0.00 0.00 0.01 0.02 0.02 0.03 0.05 0.11 0.17 0.18 0.19 0.23 0.32 0.34 0.34 0.38 0.49 0.83 1.17 1.54 1.86 2.12 2.31 2.42 2.35 2.53 2.74 3.03 3.38 3.66 3.83 3.73 3.59 3.49 3.35 3.27 3.20 3.09 2.95 2.84 2.67 2.48 2.26 1.99 1.80 1.67 1.57 1.43 1.26
0.00 0.00 0.01 0.04 0.06 0.07 0.09 0.18 0.23 0.25 0.28 0.31 0.35 0.41 0.42 0.43 0.55 0.82 0.98 1.17 1.48 1.84 2.09 2.25 2.44 2.86 3.32 3.80 4.42 4.83 4.71 4.43 4.26 3.95 3.79 3.54 3.29 3.19 3.09 2.78 2.59 2.42 2.22 2.04 1.83 1.67 1.57 1.43 1.26
0.01 0.01 0.02 0.03 0.04 0.08 0.09 0.22 0.33 0.38 0.41 0.41 0.42 0.41 0.42 0.42 0.47 0.65 0.88 1.06 1.29 1.68 2.05 2.33 2.69 3.20 3.79 4.26 4.70 5.00 5.04 4.84 4.60 4.14 3.73 3.29 2.96 2.78 2.66 2.46 2.23 2.10 1.96 1.80 1.64 1.57 1.45 1.31 1.14
0.01 0.02 0.03 0.02 0.02 0.05 0.10 0.22 0.45 0.51 0.46 0.44 0.42 0.38 0.34 0.34 0.38 0.48 0.64 0.85 1.13 1.53 1.96 2.31 2.63 3.19 3.72 4.19 4.53 4.77 4.88 4.75 4.44 3.83 3.26 2.88 2.59 2.36 2.14 1.93 1.79 1.71 1.56 1.37 1.19 1.10 1.03 0.95 0.84
0.00 0.01 0.03 0.03 0.04 0.09 0.09 0.21 0.53 0.74 0.65 0.51 0.48 0.41 0.36 0.32 0.35 0.44 0.56 0.72 0.99 1.31 1.66 2.00 2.33 2.98 3.61 4.08 4.42 4.68 4.67 4.39 3.90 3.34 2.84 2.55 2.33 2.11 1.89 1.71 1.50 1.35 1.20 1.01 0.83 0.74 0.72 0.72 0.70
0.01 0.02 0.09 0.11 0.12 0.12 0.11 0.28 0.62 0.75 0.68 0.57 0.51 0.42 0.35 0.30 0.31 0.39 0.52 0.64 0.91 1.21 1.50 1.85 2.18 2.58 3.04 3.40 3.58 3.72 3.76 3.60 3.36 3.02 2.62 2.29 2.08 1.88 1.64 1.36 1.14 0.98 0.89 0.79 0.68 0.60 0.54 0.52 0.52
0.01 0.03 0.10 0.15 0.15 0.16 0.25 0.52 0.79 0.76 0.69 0.62 0.54 0.42 0.36 0.32 0.33 0.39 0.53 0.66 0.80 1.03 1.32 1.66 1.93 2.18 2.38 2.53 2.68 2.66 2.62 2.55 2.46 2.18 1.86 1.61 1.40 1.25 1.08 0.89 0.80 0.71 0.63 0.58 0.54 0.49 0.45 0.43 0.44
0.02 0.03 0.04 0.07 0.09 0.19 0.47 0.69 0.93 0.86 0.85 0.74 0.63 0.52 0.43 0.38 0.38 0.46 0.59 0.68 0.77 0.90 1.11 1.28 1.42 1.57 1.63 1.59 1.58 1.63 1.64 1.58 1.47 1.32 1.11 0.92 0.75 0.65 0.59 0.51 0.46 0.41 0.39 0.38 0.38 0.38 0.40 0.40 0.41
0.02 0.03 0.05 0.10 0.16 0.27 0.46 0.75 1.06 1.11 1.05 0.83 0.67 0.56 0.46 0.44 0.46 0.52 0.62 0.69 0.73 0.79 0.95 1.05 1.06 1.03 1.05 1.10 1.09 1.06 1.05 1.03 0.99 0.92 0.84 0.73 0.61 0.50 0.41 0.37 0.35 0.32 0.30 0.31 0.32 0.34 0.36 0.39 0.37
0.06 0.06 0.06 0.12 0.17 0.31 0.56 0.98 1.11 1.26 1.20 1.00 0.85 0.66 0.56 0.53 0.56 0.63 0.63 0.61 0.61 0.64 0.67 0.71 0.76 0.79 0.80 0.82 0.83 0.81 0.74 0.69 0.66 0.66 0.62 0.57 0.49 0.42 0.37 0.32 0.29 0.28 0.26 0.25 0.27 0.28 0.29 0.33 0.34
0.06 0.07 0.10 0.18 0.24 0.28 0.53 1.16 1.17 1.42 1.38 1.18 0.99 0.77 0.70 0.67 0.66 0.65 0.61 0.57 0.56 0.60 0.62 0.62 0.64 0.65 0.67 0.67 0.64 0.62 0.54 0.50 0.48 0.47 0.46 0.42 0.40 0.38 0.36 0.34 0.33 0.30 0.26 0.23 0.24 0.25 0.24 0.25 0.25